• In Czech Republic
  • List of Countries
  • For 7 days
  • Water Temperature
  • Satellite Maps
  • Weather Map
  • Weather Widgets
  • user-avatar
    Login

    Hourly Weather Montreal

    Today, 18 June, Monday

    Time Temperature Precipitation Wind Pressure Humidity
    00:00 +23°C° 0.1 mm 4 mps 755 mmHg 74%
    01:00 +23°C° 0.1 mm 4 mps 755 mmHg 76%
    02:00 +23°C° 0.1 mm 4 mps 754 mmHg 77%
    03:00 +23°C° 0.1 mm 4 mps 754 mmHg 78%
    04:00 +23°C° 0.1 mm 5 mps 753 mmHg 80%
    05:00 +23°C° 0.3 mm 5 mps 753 mmHg 82%
    06:00 +23°C° 0.3 mm 5 mps 753 mmHg 85%
    07:00 +23°C° 0.3 mm 5 mps 753 mmHg 88%
    08:00 +25°C° 0.5 mm 5 mps 752 mmHg 87%
    09:00 +26°C° 0.5 mm 5 mps 752 mmHg 87%
    10:00 +27°C° 0.5 mm 5 mps 752 mmHg 87%
    11:00 +27°C° 0.7 mm 5 mps 751 mmHg 87%
    12:00 +27°C° 0.7 mm 5 mps 751 mmHg 88%
    13:00 +27°C° 0.7 mm 5 mps 750 mmHg 88%
    14:00 +27°C° 0.9 mm 5 mps 750 mmHg 87%
    15:00 +27°C° 0.9 mm 6 mps 750 mmHg 85%
    16:00 +28°C° 0.9 mm 6 mps 749 mmHg 84%
    17:00 +27°C° 1 mm 6 mps 749 mmHg 86%
    18:00 +26°C° 1 mm 5 mps 750 mmHg 88%
    19:00 +25°C° 1 mm 5 mps 750 mmHg 90%
    20:00 +22°C° 0.4 mm 4 mps 750 mmHg 89%
    21:00 +21°C° 0.4 mm 3 mps 750 mmHg 88%
    22:00 +20°C° 0.4 mm 3 mps 751 mmHg 87%
    23:00 +19°C° 0 mm 3 mps 751 mmHg 87%

    Tomorrow, 19 June, Tuesday

    Time Temperature Precipitation Wind Pressure Humidity
    00:00 +18°C° 0 mm 3 mps 752 mmHg 87%
    01:00 +17°C° 0 mm 4 mps 752 mmHg 87%
    02:00 +15°C° 0 mm 4 mps 753 mmHg 85%
    03:00 +14°C° 0 mm 4 mps 753 mmHg 83%
    04:00 +13°C° 0 mm 3 mps 754 mmHg 82%
    05:00 +13°C° 0 mm 3 mps 754 mmHg 78%
    06:00 +14°C° 0 mm 3 mps 755 mmHg 75%
    07:00 +14°C° 0 mm 3 mps 755 mmHg 72%
    08:00 +17°C° 0 mm 3 mps 755 mmHg 67%
    09:00 +18°C° 0 mm 3 mps 755 mmHg 62%
    10:00 +20°C° 0 mm 3 mps 755 mmHg 57%
    11:00 +21°C° 0 mm 3 mps 755 mmHg 53%
    12:00 +22°C° 0 mm 3 mps 755 mmHg 50%
    13:00 +25°C° 0 mm 3 mps 755 mmHg 46%
    14:00 +25°C° 0 mm 3 mps 755 mmHg 46%
    15:00 +26°C° 0 mm 3 mps 755 mmHg 47%
    16:00 +26°C° 0 mm 3 mps 755 mmHg 47%
    17:00 +25°C° 0 mm 3 mps 755 mmHg 53%
    18:00 +22°C° 0 mm 3 mps 755 mmHg 58%
    19:00 +21°C° 0 mm 2 mps 755 mmHg 63%
    20:00 +20°C° 0 mm 2 mps 755 mmHg 63%
    21:00 +19°C° 0 mm 2 mps 755 mmHg 62%
    22:00 +18°C° 0 mm 2 mps 755 mmHg 62%
    23:00 +17°C° 0 mm 2 mps 755 mmHg 63%

    Day after tomorrow, 20 June, Wednesday

    Time Temperature Precipitation Wind Pressure Humidity
    00:00 +16°C° 0 mm 2 mps 755 mmHg 64%
    01:00 +16°C° 0 mm 2 mps 755 mmHg 65%
    02:00 +14°C° 0 mm 3 mps 754 mmHg 67%
    03:00 +13°C° 0 mm 3 mps 754 mmHg 70%
    04:00 +13°C° 0 mm 3 mps 754 mmHg 72%
    05:00 +14°C° 0 mm 4 mps 754 mmHg 71%
    06:00 +15°C° 0 mm 4 mps 753 mmHg 71%
    07:00 +18°C° 0 mm 4 mps 753 mmHg 70%
    08:00 +20°C° 0 mm 5 mps 753 mmHg 66%
    09:00 +21°C° 0 mm 5 mps 752 mmHg 62%
    10:00 +23°C° 0 mm 5 mps 752 mmHg 58%
    11:00 +24°C° 0 mm 6 mps 752 mmHg 57%
    12:00 +26°C° 0 mm 6 mps 751 mmHg 56%
    13:00 +27°C° 0 mm 6 mps 751 mmHg 54%
    14:00 +26°C° 0.4 mm 6 mps 751 mmHg 56%
    15:00 +25°C° 0.4 mm 5 mps 751 mmHg 58%
    16:00 +23°C° 0.4 mm 5 mps 751 mmHg 60%
    17:00 +21°C° 0 mm 4 mps 751 mmHg 59%
    18:00 +20°C° 0 mm 3 mps 752 mmHg 59%
    19:00 +19°C° 0 mm 3 mps 752 mmHg 58%
    20:00 +17°C° 0 mm 3 mps 753 mmHg 55%
    21:00 +16°C° 0 mm 3 mps 754 mmHg 52%
    22:00 +13°C° 0 mm 3 mps 754 mmHg 49%
    23:00 +13°C° 0 mm 3 mps 755 mmHg 50%

    21 June, Thursday

    Time Temperature Precipitation Wind Pressure Humidity
    00:00 +12°C° 0 mm 3 mps 755 mmHg 50%
    01:00 +12°C° 0 mm 2 mps 755 mmHg 51%
    02:00 +10°C° 0 mm 2 mps 756 mmHg 52%
    03:00 +10°C° 0 mm 2 mps 756 mmHg 54%
    04:00 +9°C° 0 mm 2 mps 756 mmHg 55%
    05:00 +10°C° 0 mm 2 mps 757 mmHg 56%
    06:00 +13°C° 0 mm 2 mps 757 mmHg 57%
    07:00 +14°C° 0 mm 2 mps 757 mmHg 58%
    08:00 +15°C° 0 mm 2 mps 757 mmHg 53%
    09:00 +17°C° 0 mm 2 mps 758 mmHg 49%
    10:00 +18°C° 0 mm 2 mps 758 mmHg 44%
    11:00 +19°C° 0 mm 2 mps 758 mmHg 42%
    12:00 +20°C° 0 mm 2 mps 757 mmHg 41%
    13:00 +21°C° 0 mm 3 mps 757 mmHg 39%
    14:00 +21°C° 0 mm 3 mps 757 mmHg 41%
    15:00 +21°C° 0 mm 3 mps 757 mmHg 42%
    16:00 +21°C° 0 mm 3 mps 757 mmHg 44%
    17:00 +20°C° 0 mm 3 mps 757 mmHg 50%
    18:00 +19°C° 0 mm 3 mps 757 mmHg 57%
    19:00 +17°C° 0 mm 3 mps 758 mmHg 63%
    20:00 +16°C° 0 mm 3 mps 758 mmHg 62%
    21:00 +14°C° 0 mm 3 mps 758 mmHg 61%
    22:00 +13°C° 0 mm 3 mps 759 mmHg 60%
    23:00 +13°C° 0 mm 3 mps 759 mmHg 60%

    22 June, Friday

    Time Temperature Precipitation Wind Pressure Humidity
    00:00 +13°C° 0 mm 3 mps 759 mmHg 61%
    01:00 +12°C° 0 mm 3 mps 759 mmHg 61%
    02:00 +12°C° 0 mm 3 mps 759 mmHg 63%
    03:00 +12°C° 0 mm 3 mps 758 mmHg 64%
    04:00 +11°C° 0 mm 3 mps 758 mmHg 66%
    05:00 +13°C° 0 mm 4 mps 758 mmHg 66%
    06:00 +14°C° 0 mm 4 mps 758 mmHg 66%
    07:00 +15°C° 0 mm 5 mps 758 mmHg 66%
    08:00 +17°C° 0 mm 5 mps 758 mmHg 62%
    09:00 +20°C° 0 mm 6 mps 758 mmHg 59%
    10:00 +22°C° 0 mm 6 mps 757 mmHg 56%
    11:00 +23°C° 0 mm 6 mps 757 mmHg 55%
    12:00 +26°C° 0 mm 6 mps 757 mmHg 53%
    13:00 +27°C° 0 mm 6 mps 757 mmHg 52%
    14:00 +27°C° 0 mm 6 mps 756 mmHg 54%
    15:00 +28°C° 0 mm 6 mps 756 mmHg 55%
    16:00 +28°C° 0 mm 5 mps 756 mmHg 56%
    17:00 +26°C° 0 mm 5 mps 757 mmHg 60%
    18:00 +25°C° 0 mm 5 mps 757 mmHg 63%
    19:00 +23°C° 0 mm 4 mps 757 mmHg 67%
    20:00 +21°C° 0 mm 4 mps 757 mmHg 66%
    21:00 +20°C° 0 mm 4 mps 758 mmHg 64%
    22:00 +19°C° 0 mm 3 mps 758 mmHg 63%
    23:00 +18°C° 0 mm 3 mps 758 mmHg 63%

    23 June, Saturday

    Time Temperature Precipitation Wind Pressure Humidity
    00:00 +17°C° 0 mm 2 mps 758 mmHg 64%
    01:00 +17°C° 0 mm 2 mps 758 mmHg 64%
    02:00 +16°C° 0 mm 2 mps 758 mmHg 65%
    03:00 +16°C° 0 mm 1 mps 758 mmHg 66%
    04:00 +15°C° 0 mm 1 mps 758 mmHg 67%
    05:00 +16°C° 0 mm 1 mps 758 mmHg 67%
    06:00 +19°C° 0 mm 1 mps 758 mmHg 67%
    07:00 +20°C° 0 mm 1 mps 758 mmHg 67%
    08:00 +21°C° 0 mm 1 mps 758 mmHg 66%
    09:00 +23°C° 0 mm 2 mps 758 mmHg 64%
    10:00 +24°C° 0 mm 2 mps 758 mmHg 62%
    11:00 +24°C° 0 mm 2 mps 758 mmHg 65%
    12:00 +24°C° 0 mm 2 mps 757 mmHg 67%
    13:00 +24°C° 0 mm 2 mps 757 mmHg 69%
    14:00 +24°C° 0 mm 2 mps 757 mmHg 71%
    15:00 +23°C° 0 mm 2 mps 756 mmHg 73%
    16:00 +23°C° 0 mm 2 mps 756 mmHg 75%
    17:00 +21°C° 0 mm 3 mps 756 mmHg 74%
    18:00 +21°C° 0 mm 3 mps 756 mmHg 73%
    19:00 +20°C° 0 mm 3 mps 756 mmHg 72%
    20:00 +20°C° 0 mm 3 mps 755 mmHg 71%
    21:00 +20°C° 0 mm 3 mps 755 mmHg 71%
    22:00 +19°C° 0 mm 3 mps 755 mmHg 70%
    23:00 +19°C° 0.5 mm 3 mps 755 mmHg 75%
    Show more